TimeCST,TemperatureF,Dew PointF,Humidity,Sea Level PressureIn,VisibilityMPH,Wind Direction,Wind SpeedMPH,Gust SpeedMPH,PrecipitationIn,Events,Conditions,WindDirDegrees,DateUTC
12:15 AM,15.8,15.8,100,29.77,10.0,South,8.1,-,N/A,,Clear,170,2013-01-08 06:15:00
12:55 AM,15.8,15.8,100,29.75,10.0,SSE,9.2,-,N/A,,Clear,150,2013-01-08 06:55:00
1:15 AM,17.6,17.6,100,29.74,10.0,SE,6.9,-,N/A,,Clear,140,2013-01-08 07:15:00
1:35 AM,15.8,15.8,100,29.73,10.0,ESE,6.9,-,N/A,,Clear,110,2013-01-08 07:35:00
1:55 AM,15.8,15.8,100,29.73,10.0,ESE,5.8,-,N/A,,Scattered Clouds,120,2013-01-08 07:55:00
2:15 AM,14.0,14.0,100,29.71,10.0,ESE,6.9,-,N/A,,Partly Cloudy,110,2013-01-08 08:15:00
2:35 AM,15.8,15.8,100,29.71,10.0,ESE,6.9,-,N/A,,Mostly Cloudy,120,2013-01-08 08:35:00
2:55 AM,14.0,14.0,100,29.71,10.0,ESE,5.8,-,N/A,,Overcast,120,2013-01-08 08:55:00
3:15 AM,17.6,17.6,100,29.71,10.0,SE,5.8,-,N/A,,Overcast,140,2013-01-08 09:15:00
3:35 AM,17.6,17.6,100,29.70,10.0,SE,3.5,-,N/A,,Overcast,140,2013-01-08 09:35:00
3:55 AM,17.6,17.6,100,29.68,10.0,SW,3.5,-,N/A,,Overcast,220,2013-01-08 09:55:00
4:15 AM,19.4,19.4,100,29.68,10.0,SSW,3.5,-,N/A,,Overcast,210,2013-01-08 10:15:00
4:35 AM,21.2,21.2,100,29.67,10.0,South,5.8,-,N/A,,Overcast,180,2013-01-08 10:35:00
4:55 AM,23.0,23.0,100,29.66,10.0,South,11.5,-,N/A,,Overcast,180,2013-01-08 10:55:00
5:15 AM,23.0,23.0,100,29.65,10.0,South,8.1,-,N/A,,Overcast,190,2013-01-08 11:15:00
5:35 AM,23.0,21.2,93,29.63,10.0,SSE,10.4,-,N/A,,Overcast,150,2013-01-08 11:35:00
5:55 AM,24.8,23.0,93,29.63,10.0,SSW,9.2,-,N/A,,Overcast,210,2013-01-08 11:55:00
6:15 AM,24.8,23.0,93,29.62,10.0,South,11.5,-,N/A,,Overcast,180,2013-01-08 12:15:00
6:35 AM,24.8,23.0,93,29.63,10.0,South,11.5,-,N/A,,Overcast,180,2013-01-08 12:35:00
6:55 AM,24.8,23.0,93,29.62,10.0,SSE,11.5,-,N/A,,Overcast,160,2013-01-08 12:55:00
7:15 AM,24.8,23.0,93,29.62,10.0,South,11.5,-,N/A,,Overcast,180,2013-01-08 13:15:00
7:35 AM,24.8,24.8,100,29.62,10.0,South,12.7,-,N/A,,Overcast,180,2013-01-08 13:35:00
7:55 AM,26.6,24.8,93,29.62,5.0,South,12.7,-,N/A,Rain,Freezing Rain,180,2013-01-08 13:55:00
8:15 AM,24.8,24.8,100,29.62,7.0,South,11.5,-,N/A,Rain,Freezing Rain,180,2013-01-08 14:15:00
8:35 AM,24.8,24.8,100,29.61,10.0,South,12.7,-,N/A,Rain,Freezing Rain,180,2013-01-08 14:35:00
8:55 AM,26.6,26.6,100,29.62,10.0,South,13.8,-,N/A,,Mostly Cloudy,190,2013-01-08 14:55:00
9:15 AM,26.6,26.6,100,29.62,10.0,SSW,13.8,-,N/A,,Overcast,200,2013-01-08 15:15:00
9:35 AM,26.6,26.6,100,29.62,10.0,SSW,12.7,-,N/A,,Overcast,200,2013-01-08 15:35:00
9:55 AM,26.6,26.6,100,29.63,10.0,SW,10.4,-,N/A,,Overcast,220,2013-01-08 15:55:00
10:15 AM,28.4,28.4,100,29.62,10.0,SW,11.5,-,N/A,,Mostly Cloudy,230,2013-01-08 16:15:00
10:35 AM,30.2,28.4,93,29.63,10.0,WSW,12.7,-,N/A,,Partly Cloudy,240,2013-01-08 16:35:00
10:55 AM,32.0,30.2,93,29.64,10.0,West,19.6,-,N/A,,Partly Cloudy,270,2013-01-08 16:55:00
11:15 AM,33.8,32.0,93,29.65,10.0,West,23.0,-,N/A,,Clear,280,2013-01-08 17:15:00
11:55 AM,35.6,32.0,87,29.65,10.0,WNW,24.2,32.2,N/A,,Clear,300,2013-01-08 17:55:00
12:15 PM,35.6,30.2,81,29.66,10.0,WNW,23.0,29.9,N/A,,Clear,290,2013-01-08 18:15:00
12:35 PM,35.6,30.2,81,29.66,10.0,WNW,20.7,-,N/A,,Clear,290,2013-01-08 18:35:00
12:55 PM,35.6,30.2,81,29.66,10.0,West,18.4,-,N/A,,Clear,280,2013-01-08 18:55:00
1:15 PM,35.6,30.2,81,29.67,10.0,West,17.3,-,N/A,,Clear,280,2013-01-08 19:15:00
1:55 PM,37.4,30.2,75,29.67,10.0,West,19.6,-,N/A,,Clear,270,2013-01-08 19:55:00
2:15 PM,37.4,30.2,75,29.67,10.0,West,21.9,26.5,N/A,,Clear,280,2013-01-08 20:15:00
2:35 PM,37.4,30.2,75,29.69,10.0,West,21.9,-,N/A,,Clear,270,2013-01-08 20:35:00
2:55 PM,37.4,30.2,75,29.70,10.0,West,21.9,-,N/A,,Clear,270,2013-01-08 20:55:00
3:15 PM,37.4,30.2,75,29.71,10.0,West,20.7,27.6,N/A,,Clear,270,2013-01-08 21:15:00
3:35 PM,35.6,30.2,81,29.72,10.0,West,20.7,24.2,N/A,,Clear,270,2013-01-08 21:35:00
3:55 PM,35.6,30.2,81,29.73,10.0,West,21.9,-,N/A,,Scattered Clouds,270,2013-01-08 21:55:00
4:15 PM,35.6,30.2,81,29.75,10.0,West,17.3,-,N/A,,Mostly Cloudy,280,2013-01-08 22:15:00
4:35 PM,35.6,28.4,75,29.76,10.0,West,17.3,-,N/A,,Partly Cloudy,280,2013-01-08 22:35:00
4:55 PM,33.8,28.4,81,29.76,10.0,WNW,17.3,21.9,N/A,,Partly Cloudy,290,2013-01-08 22:55:00
5:15 PM,35.6,28.4,75,29.77,10.0,West,19.6,-,N/A,,Mostly Cloudy,280,2013-01-08 23:15:00
5:35 PM,35.6,26.6,70,29.78,10.0,WNW,23.0,27.6,N/A,,Overcast,290,2013-01-08 23:35:00
5:55 PM,35.6,26.6,70,29.78,10.0,WNW,24.2,31.1,N/A,,Overcast,300,2013-01-08 23:55:00
6:15 PM,35.6,26.6,70,29.80,10.0,WNW,32.2,43.7,N/A,,Overcast,290,2013-01-09 00:15:00
6:35 PM,35.6,28.4,75,29.82,10.0,WNW,31.1,41.4,N/A,,Overcast,290,2013-01-09 00:35:00
6:55 PM,32.0,30.2,93,29.81,10.0,West,19.6,24.2,N/A,Snow,Light Snow,270,2013-01-09 00:55:00
7:15 PM,32.0,28.4,87,29.80,10.0,West,19.6,24.2,N/A,,Mostly Cloudy,260,2013-01-09 01:15:00
7:55 PM,32.0,28.4,87,29.81,10.0,West,21.9,27.6,N/A,,Partly Cloudy,260,2013-01-09 01:55:00
8:15 PM,32.0,28.4,87,29.81,10.0,West,25.3,33.4,N/A,,Clear,260,2013-01-09 02:15:00
8:35 PM,32.0,26.6,80,29.82,10.0,West,26.5,35.7,N/A,,Clear,270,2013-01-09 02:35:00
8:55 PM,32.0,26.6,80,29.83,10.0,West,25.3,34.5,N/A,,Clear,270,2013-01-09 02:55:00
9:15 PM,32.0,26.6,80,29.84,10.0,West,29.9,36.8,N/A,,Clear,270,2013-01-09 03:15:00
9:35 PM,32.0,26.6,80,29.86,10.0,West,31.1,35.7,N/A,,Clear,270,2013-01-09 03:35:00
9:55 PM,32.0,26.6,80,29.86,10.0,West,26.5,33.4,N/A,,Clear,270,2013-01-09 03:55:00
10:15 PM,32.0,24.8,75,29.87,10.0,West,26.5,34.5,N/A,,Clear,280,2013-01-09 04:15:00
10:35 PM,30.2,24.8,80,29.89,10.0,West,25.3,32.2,N/A,,Clear,280,2013-01-09 04:35:00
11:15 PM,28.4,24.8,86,29.92,10.0,West,23.0,28.8,N/A,,Clear,280,2013-01-09 05:15:00
11:55 PM,26.6,23.0,86,29.94,10.0,West,20.7,-,N/A,,Clear,280,2013-01-09 05:55:00